This is the latest recevied weather packets stored in our database for station/object SQ9RHX-13. If no packets are shown the sender has not sent any weather packets the latest 10 day(s).
| Time | Temp. | Humidity | Pressure | Rain* | Wind** | Luminosity | Snow |
|---|---|---|---|---|---|---|---|
| 1778101802 | 13.89° C | 96% | 1010.7 hPa | 2.03 mm | - | 0 W/m² | - |
| 1778101503 | 13.89° C | 96% | 1010.5 hPa | 1.78 mm | - | 0 W/m² | - |
| 1778101203 | 13.89° C | 96% | 1010.9 hPa | 2.03 mm | - | 0 W/m² | - |
| 1778100902 | 13.89° C | 96% | 1010.9 hPa | 2.03 mm | - | 0 W/m² | - |
| 1778100602 | 13.89° C | 96% | 1011 hPa | 2.29 mm | - | 0 W/m² | - |
| 1778100303 | 13.89° C | 96% | 1011.2 hPa | 2.79 mm | - | 0 W/m² | - |
| 1778100005 | 13.89° C | 96% | 1011 hPa | 2.79 mm | - | 0 W/m² | - |
| 1778099704 | 13.89° C | 96% | 1010.6 hPa | 3.05 mm | - | 0 W/m² | - |
| 1778099402 | 13.89° C | 96% | 1010.5 hPa | 3.3 mm | - | 0 W/m² | - |
| 1778099103 | 13.89° C | 95% | 1010.7 hPa | 3.3 mm | - | 0 W/m² | - |
| 1778098803 | 13.89° C | 95% | 1010.3 hPa | 3.05 mm | - | 0 W/m² | - |
| 1778098503 | 13.89° C | 95% | 1010.4 hPa | 3.05 mm | - | 0 W/m² | - |
| 1778098204 | 13.89° C | 95% | 1010.4 hPa | 2.79 mm | - | 0 W/m² | - |
| 1778097904 | 13.89° C | 95% | 1010.8 hPa | 2.54 mm | - | 0 W/m² | - |
| 1778097603 | 13.89° C | 95% | 1011 hPa | 2.79 mm | - | 0 W/m² | - |
| 1778097304 | 14.44° C | 95% | 1010.8 hPa | 2.54 mm | - | 0 W/m² | - |
| 1778097003 | 14.44° C | 95% | 1011 hPa | 2.79 mm | - | 0 W/m² | - |
| 1778096702 | 14.44° C | 95% | 1010.9 hPa | 3.3 mm | - | 0 W/m² | - |
| 1778096402 | 14.44° C | 95% | 1011 hPa | 4.06 mm | - | 0 W/m² | - |
| 1778096103 | 14.44° C | 95% | 1010.7 hPa | 4.83 mm | - | 0 W/m² | - |
| 1778095803 | 14.44° C | 94% | 1010.3 hPa | 5.08 mm | - | 0 W/m² | - |
| 1778095503 | 14.44° C | 94% | 1010.5 hPa | 5.59 mm | - | 0 W/m² | - |
| 1778095205 | 14.44° C | 94% | 1010.5 hPa | 5.84 mm | - | 0 W/m² | - |
| 1778094904 | 14.44° C | 94% | 1010.5 hPa | 6.86 mm | - | 0 W/m² | - |
| 1778094603 | 14.44° C | 94% | 1010.5 hPa | 7.37 mm | - | 0 W/m² | - |
* Rain latest hour (hover to see other rain measurements)
** Current wind speed in m/s (hover to see current wind gust speed)